RH
22 28 28 28 27 26 24 24 22 20 19 19 21 13 7 8 9 8 10 10 10 9 9 10 13 15 16 18 19 20 20 19 17 14 11 8 6 6 6 6 4 4 5 6
15 21 25 29 28 27 26 23 22 22 20 19 20 11 8 8 9 10 11 11 10 10 12 16 18 18 19 20 20 18 16 15 12 8 7 6 5 5 5 5 4 4 4 4
21 14 19 24 26 25 28 24 22 21 20 19 19 9 8 7 9 10 12 10 10 11 15 16 17 18 19 20 19 16 13 11 8 6 5 5 4 4 4 4 4 4 4 4
28 21 15 19 24 24 25 24 21 22 22 21 19 8 6 7 9 10 9 9 10 14 15 16 16 16 16 15 13 10 9 7 6 6 5 4 4 3 3 3 4 4 5 5
23 28 19 20 24 25 25 21 20 21 23 24 15 8 6 7 9 9 11 13 14 15 15 15 14 13 12 10 8 7 6 6 5 5 4 4 3 3 4 6 6 6 6 7
9 26 28 20 26 27 26 25 24 22 22 23 18 6 6 8 9 10 12 12 13 13 13 12 10 10 8 8 6 6 5 4 4 4 4 4 4 4 6 14 12 7 7 8
26 20 27 26 24 27 28 29 25 22 22 24 21 8 7 8 9 9 10 10 10 10 9 8 8 7 6 6 5 4 4 4 4 4 4 5 6 8 8 20 11 8 10 23
75 69 34 32 24 28 34 32 27 24 23 25 25 11 6 7 7 7 7 7 7 7 7 6 6 5 4 4 4 4 4 4 5 6 6 7 8 26 20 25 14 22 39 24
31 43 27 32 30 30 28 30 33 36 27 25 25 16 7 6 6 5 5 6 6 5 5 4 4 4 4 4 4 4 4 6 8 8 9 12 29 17 18 34 39 34 20 24
56 76 27 10 19 32 33 32 35 37 32 30 27 28 13 7 6 7 6 5 4 4 4 4 4 4 4 4 5 6 7 36 30 11 12 45 27 36 76 49 36 25 26 48
62 71 52 62 25 11 29 33 37 39 36 30 26 27 30 20 14 12 9 6 5 4 4 4 4 6 10 13 44 54 67 18 13 22 25 41 81 72 36 26 26 50 75 76
51 69 77 83 39 35 11 15 34 34 38 43 40 29 32 28 21 14 8 4 4 4 5 7 15 50 76 73 62 22 22 39 69 82 97 71 35 27 27 48 79 81 77 78
71 81 83 84 82 34 7 7 9 12 15 16 19 15 11 6 5 10 9 10 12 16 15 20 49 93 98 97 78 74 87 96 96 83 48 28 31 67 83 83 80 81 52 17
72 73 78 89 88 86 68 20 10 10 7 6 10 7 5 14 33 25 16 18 48 70 70 79 86 87 92 95 98 95 88 75 63 32 52 82 85 82 80 83 59 17 7 7
76 83 85 85 90 89 71 23 10 9 14 21 13 11 13 18 14 15 35 78 77 75 78 78 78 75 72 73 76 79 81 78 77 89 96 86 79 82 66 18 7 8 10 11
86 79 82 77 71 63 71 82 49 24 27 23 17 21 25 39 54 69 82 72 72 70 65 63 65 65 64 64 66 69 64 58 76 84 80 77 74 14 7 8 10 12 12 13
70 77 90 77 81 80 71 59 57 66 75 80 82 79 82 72 63 61 68 66 57 53 57 63 67 67 65 60 54 49 50 62 75 75 78 30 6 8 9 11 13 14 15 14
65 79 89 81 90 77 97 95 84 67 58 50 44 46 52 55 58 59 52 50 51 59 66 69 72 75 71 61 50 49 66 74 72 61 8 7 9 11 13 14 16 15 14 13
61 79 83 74 84 70 51 42 42 43 41 43 46 50 55 53 48 47 48 50 56 61 67 73 79 82 80 74 70 65 70 73 30 6 8 10 12 14 15 16 15 14 12 10
52 79 80 73 66 43 42 35 35 38 41 45 52 46 42 41 39 43 48 56 59 62 67 75 77 77 76 75 70 71 66 12 6 8 11 13 14 15 16 15 14 12 10 8
45 77 77 68 53 38 34 38 37 36 37 34 30 33 35 38 43 50 55 56 60 66 71 74 75 71 71 70 71 46 7 6 8 11 13 15 16 16 15 13 11 9 7 5
39 76 72 62 46 36 37 32 26 24 23 23 26 32 38 44 53 55 56 59 63 67 71 73 70 66 69 70 26 6 6 9 12 14 15 17 16 14 13 11 9 7 5 4
37 59 64 58 42 33 32 28 24 22 20 23 30 35 42 52 56 54 54 59 66 70 71 72 71 72 62 13 5 6 9 12 14 16 18 17 15 14 12 9 8 6 4 3
34 54 51 54 44 31 31 28 23 21 23 26 30 37 45 52 50 45 52 63 67 71 72 73 74 59 12 5 7 9 11 14 17 19 18 16 14 12 11 9 7 5 4 3
33 49 56 54 41 31 38 31 25 24 26 27 30 38 45 46 43 46 56 63 67 72 73 73 60 14 5 7 9 10 14 17 19 19 18 15 14 12 9 8 6 4 3 4
30 44 65 55 40 35 34 34 27 27 28 29 33 39 38 36 42 49 54 62 66 69 70 68 26 6 6 9 11 13 17 20 21 20 18 15 13 10 9 7 4 3 4 5
Wind_Speed
20 21 20 20 19 16 17 15 15 15 13 12 10 11 12 10 10 10 8 8 8 9 11 12 14 16 18 19 21 23 26 28 28 28 29 31 33 34 35 36 36 37 38 40
22 22 21 21 20 19 19 18 18 18 18 14 11 12 12 13 12 12 12 11 10 10 12 13 15 18 20 22 25 27 29 31 32 31 31 32 35 36 37 39 40 42 45 46
24 22 23 23 19 20 20 19 18 18 19 17 12 13 13 14 13 14 16 15 14 13 14 15 18 20 22 25 28 31 33 34 35 35 35 36 38 39 40 43 46 46 47 49
23 22 22 23 21 18 18 19 17 17 17 18 15 16 15 14 16 17 17 16 17 16 17 19 22 23 24 27 31 33 34 36 37 38 39 40 41 43 44 47 48 49 50 52
21 22 23 23 23 20 18 19 18 17 17 17 18 16 18 16 16 18 17 18 19 20 21 22 25 26 28 31 31 32 35 37 40 42 43 44 46 47 47 48 49 50 52 53
19 23 22 27 25 23 19 19 19 19 17 16 18 19 18 19 19 20 19 21 22 23 24 25 27 29 31 32 33 34 36 39 42 47 49 49 51 52 53 52 55 53 54 53
21 19 23 27 29 26 21 19 19 19 18 19 16 22 22 19 20 21 22 23 24 26 26 28 29 31 32 34 38 38 39 42 45 50 52 53 55 55 55 56 58 56 54 54
24 24 21 23 25 25 25 24 21 20 21 19 18 21 25 21 22 24 23 25 26 27 28 29 32 33 36 38 40 43 46 48 48 50 53 55 56 58 57 59 57 57 56 55
24 25 23 22 27 29 26 27 23 23 21 21 19 21 27 27 23 24 25 26 27 27 29 32 34 37 41 42 44 47 50 50 49 51 53 55 58 59 56 56 57 57 53 56
25 26 26 23 26 28 29 27 27 26 25 23 22 20 27 29 29 28 27 26 28 30 31 33 36 38 41 44 47 49 50 52 53 52 52 57 59 55 54 54 55 55 56 57
26 25 25 29 26 25 27 27 27 29 29 27 24 23 22 26 31 33 32 32 32 33 35 37 39 41 42 44 49 48 50 49 47 49 52 55 56 54 55 56 54 56 58 56
27 28 30 28 30 32 30 28 28 30 28 29 28 24 25 28 31 33 31 32 34 37 39 39 38 43 48 46 44 40 41 45 49 50 53 47 53 54 53 55 57 54 56 55
29 31 31 32 32 33 31 30 30 30 30 27 31 24 26 31 33 31 33 36 38 40 43 43 48 42 41 42 42 45 47 47 44 44 48 48 48 52 52 50 53 53 52 53
32 32 32 32 31 33 34 33 32 32 31 30 28 29 28 35 36 35 37 36 43 46 43 40 38 37 36 37 40 41 39 37 39 41 43 45 45 47 49 49 49 51 55 60
30 29 28 26 26 29 31 31 33 33 34 35 32 32 34 38 34 34 40 46 37 35 34 32 34 36 37 37 35 32 31 32 35 38 38 44 45 45 44 46 51 57 62 67
28 25 24 22 21 22 25 32 34 32 33 35 34 33 35 38 43 42 33 31 29 28 29 32 34 36 35 31 28 29 30 32 35 39 41 43 41 40 45 52 57 63 69 74
28 21 20 19 20 22 21 27 33 33 34 30 27 24 24 25 25 24 23 23 27 31 33 34 33 33 32 29 28 29 31 33 38 38 39 35 39 46 52 58 64 70 75 80
27 21 20 16 16 13 11 14 17 17 18 18 18 17 18 18 18 20 23 27 30 32 32 32 34 35 32 30 29 30 33 35 34 32 33 39 46 52 58 64 70 75 79 84
29 24 20 18 15 9 9 11 14 16 16 15 16 15 14 17 19 22 25 29 31 32 33 35 36 35 33 31 31 33 33 31 28 31 38 45 52 58 64 70 74 78 84 89
29 26 24 18 16 12 11 12 13 13 12 12 12 14 16 17 21 24 28 30 32 34 35 36 35 34 32 30 29 28 27 25 30 37 44 50 57 63 70 74 79 84 89 95
31 29 25 21 19 12 12 10 11 11 11 13 14 14 15 18 21 25 28 31 34 35 35 34 32 30 28 26 25 23 24 29 36 42 49 56 63 69 73 77 83 88 95 100
31 31 27 23 19 16 13 11 11 11 12 14 14 14 16 19 22 25 29 33 34 34 33 31 28 26 24 23 21 23 29 35 42 49 55 61 68 72 77 82 87 94 98 108
33 30 24 24 20 18 13 12 12 12 14 14 14 14 17 19 21 26 30 33 35 35 32 29 26 25 22 21 22 28 33 41 48 54 59 66 71 76 80 85 92 96 106 107
32 31 27 25 21 19 16 14 13 14 16 15 15 16 18 20 23 28 32 34 36 36 32 29 25 23 21 22 27 32 39 46 52 58 64 69 73 78 84 89 96 101 106 95
35 34 30 26 25 19 19 16 14 14 16 17 17 17 19 22 26 29 33 35 37 35 31 26 25 23 23 26 32 37 44 50 56 62 67 72 76 81 85 95 97 105 98 75
37 33 32 30 25 21 21 18 15 16 17 18 18 18 21 25 27 31 35 37 37 33 28 26 26 24 26 31 36 41 48 54 59 65 71 74 78 84 90 95 101 97 80 59
Wind_Direction
238 237 242 249 255 259 263 257 262 260 265 278 276 232 227 228 230 235 236 245 262 280 289 290 291 299 303 302 302 306 308 309 310 309 309 310 309 309 306 303 303 305 306 305
241 241 244 249 256 259 258 260 266 269 273 268 259 225 227 237 244 250 249 248 258 275 283 296 297 300 300 299 304 307 307 306 305 305 305 304 304 304 304 305 306 307 308 308
239 243 241 245 249 256 256 260 266 269 273 274 268 229 229 244 254 256 256 261 265 275 280 288 293 297 299 299 301 303 303 302 301 302 303 305 306 306 306 306 306 306 307 308
237 243 242 244 248 252 254 256 264 272 273 273 267 239 239 239 250 256 267 269 273 276 281 284 287 292 296 294 294 297 299 299 299 301 304 305 306 307 306 306 305 304 305 307
244 239 239 240 241 245 252 254 258 264 264 270 267 236 249 253 252 261 265 269 273 276 278 281 286 290 291 291 294 296 297 298 301 302 303 305 303 303 303 302 302 303 304 305
244 238 236 238 240 244 248 252 254 258 260 258 263 243 238 253 257 256 257 263 268 274 280 285 289 290 289 291 293 295 296 298 300 301 302 302 302 302 303 309 308 307 307 306
234 239 240 236 238 242 248 251 256 258 257 261 247 249 245 246 257 257 258 261 269 276 281 284 283 285 289 292 294 294 296 297 299 298 298 299 301 305 308 310 309 308 308 309
231 238 237 239 240 243 245 250 254 259 260 256 252 241 252 249 250 258 265 272 275 277 281 285 288 291 294 296 297 296 295 296 295 295 298 302 304 307 307 307 307 309 308 309
223 232 237 236 237 238 243 248 254 257 258 259 253 244 247 254 257 261 264 267 273 279 284 288 290 292 293 293 293 292 293 293 297 299 300 303 304 302 304 306 307 306 307 308
231 236 235 237 236 236 241 245 249 256 258 257 256 251 251 254 261 264 265 270 275 279 282 284 286 288 289 291 293 293 294 298 299 296 298 299 298 301 305 304 303 306 306 308
240 244 240 240 243 241 241 244 249 255 256 261 258 259 255 254 259 264 272 279 285 288 288 290 289 291 292 292 292 290 295 295 296 297 294 296 298 302 302 304 306 305 308 309
232 239 245 250 245 245 247 244 247 253 260 263 263 257 266 266 269 269 276 283 284 286 286 287 291 294 294 291 293 291 293 293 294 292 294 298 299 300 303 303 305 307 308 311
243 253 259 263 251 244 249 247 248 252 255 261 263 272 269 267 272 282 284 286 288 292 292 290 291 293 292 295 292 289 288 289 294 294 294 296 299 300 302 307 307 310 312 312
253 259 264 267 255 245 249 251 255 256 258 262 264 265 270 268 278 281 282 283 291 295 292 292 294 297 297 295 295 296 296 293 295 292 295 297 300 303 305 308 313 314 314 315
255 260 263 272 258 251 249 252 253 257 260 264 267 267 267 274 281 283 289 295 295 293 294 295 296 295 294 294 294 293 291 292 296 298 298 300 302 307 313 315 316 317 316 317
254 259 272 265 259 258 256 253 251 257 261 262 264 266 270 277 281 285 286 289 292 296 298 299 300 300 302 302 299 296 298 297 297 297 299 303 310 316 317 318 318 318 318 318
251 255 262 265 262 265 267 256 258 262 265 270 276 280 279 277 283 288 290 296 301 303 305 304 303 306 306 302 298 298 299 297 299 302 306 314 318 320 319 319 320 319 318 316
248 245 243 257 254 260 263 266 271 276 275 276 279 283 286 290 293 297 300 303 306 308 307 306 308 309 306 303 301 299 300 301 304 308 316 321 321 321 322 322 321 319 317 316
246 245 241 244 243 244 253 264 280 285 286 287 286 287 289 293 298 303 307 308 309 310 311 311 310 309 307 304 302 301 303 307 311 318 321 322 322 323 323 322 320 319 319 318
246 245 240 236 234 236 251 271 277 280 282 280 283 291 297 303 309 309 308 311 312 313 311 309 309 308 306 304 302 304 308 312 317 320 322 322 323 323 322 322 321 321 320 319
241 239 236 231 231 235 251 259 269 275 282 283 290 301 307 309 309 312 315 314 312 310 309 309 310 308 304 303 305 308 312 317 320 321 322 324 325 325 324 323 323 323 323 322
240 239 234 226 234 242 251 258 271 275 281 289 299 302 303 309 316 318 315 314 312 311 311 311 308 307 306 305 307 311 317 320 321 322 324 326 326 326 326 326 326 325 326 325
234 240 233 229 234 242 245 258 272 274 281 290 292 298 308 315 318 316 316 315 314 314 312 308 305 306 304 305 312 316 320 321 323 325 325 327 328 327 327 327 328 328 328 325
228 232 230 229 237 240 242 254 266 279 290 287 295 304 312 316 316 317 318 320 320 316 312 308 306 304 303 310 315 317 320 322 324 326 327 329 329 328 329 329 330 330 328 328
223 227 225 229 239 238 242 255 267 283 289 290 300 307 315 315 316 319 321 323 322 317 312 306 303 302 307 314 316 317 321 323 325 327 330 331 331 331 331 331 332 331 329 331
220 225 227 228 237 238 240 253 266 284 287 294 302 310 314 316 317 320 322 323 322 315 308 303 301 303 310 314 316 320 322 324 327 330 333 332 332 333 333 333 333 331 332 333